Location: C.E.K. Mees Observatory
(42.7003°N, 77.4088°W)
Time: 06:47:19
(UTC-04:00)

ISS - Pass Details

Date: 10 October 2017
Orbit: 401 x 408 km, 51.6° (Epoch: 20 October)

Event Time Altitude Azimuth Distance (km) Brightness Sun altitude
Rises 19:41:03 0° 306° (NW) 2,325 1.0 -12.9°
Reaches altitude 10° 19:43:17 10° 317° (NW) 1,465 -0.3 -13.3°
Maximum altitude 19:46:16 32° 23° (NNE) 726 -2.7 -13.9°
Enters shadow 19:47:24 25° 62° (ENE) 872 -2.6 -14.1°
